Location: ???????
(56.2167°N, 38.0500°E)
Time: 03:51:50
(UTC+00:00)

Cosmos 2061 Rocket - Pass Details

Date: 19 May 2025
Orbit: 965 x 1011 km, 82.9° (Epoch: 15 June)

Event Time Altitude Azimuth Distance (km) Brightness Sun altitude
Rises 22:03:33 0° 348° (NNW) 3,761 8.5 -13.4°
Reaches altitude 10° 22:06:08 10° 351° (N) 2,805 7.6 -13.3°
Maximum altitude 22:12:34 69° 74° (ENE) 1,078 4.3 -13.1°
Enters shadow 22:18:50 11° 158° (SSE) 2,730 5.9 -12.9°
